San Antonio, TX

2:26 AM CDT on July 22, 2017 (GMT -0500)
San Antonio International

Weather History for KSAT - February, 2014

Change the Weather History Date:

Thursday, February 20, 2014

  Actual Average Record
Temperature  
Mean Temperature 72 °F 57 °F  
Max Temperature 86 °F 68 °F 97 °F (1986)
Min Temperature 58 °F 45 °F 27 °F (1908)
Degree Days  
Heating Degree Days 0 9  
Month to date heating degree days 212 216  
Since 1 July heating degree days 1280 1234  
Cooling Degree Days 7 1  
Month to date cooling degree days 44 16  
Year to date cooling degree days 47 23  
Growing Degree Days 22 (Base 50)    
Moisture  
Dew Point 49 °F    
Average Humidity 49    
Maximum Humidity 87    
Minimum Humidity 10    
Precipitation  
Precipitation 0.00 in 0.05 in 1.46 in (1958)
Month to date precipitation 0.21 1.28  
Year to date precipitation 0.44 3.04  
Snow  
Snow 0.00 in - - ()
Month to date snowfall 0.3  
Since 1 July snowfall 0.4  
Snow Depth 0.00 in    
Sea Level Pressure  
Sea Level Pressure 29.82 in    
Wind  
Wind Speed 10 mph (ENE)    
Max Wind Speed 24 mph    
Max Gust Speed 31 mph    
Visibility 9 miles    
Events      
T = Trace of Precipitation, MM = Missing Value Source: NWS Daily Summary

Daily Weather History Graph

Daily Weather History Graph

Search for Another Location

Airport or City:

Trip Planner

Search our weather history database for the weather conditions in past years. The results will help you decide how hot, cold, wet, or windy it might be!

Date:

Astronomy

Feb. 20, 2014 Rise Set
Actual Time 7:08 AM CST 6:27 PM CST
Civil Twilight 6:44 AM CST 6:51 PM CST
Nautical Twilight 6:16 AM CST 7:18 PM CST
Astronomical Twilight 5:48 AM CST 7:46 PM CST
Moon 11:53 PM CST (2/20) 10:19 AM CST (2/20)
Length of Visible Light 12h 06m
Length of Day
11h 18m
Waning Gibbous, 70% of the Moon is Illuminated
Feb 20
Waning Gibbous
Feb 22
Last Quarter
Mar 1
New
Mar 8
First Quarter
Mar 16
Full

Hourly Weather History & Observations

Time (CST) Temp. Heat Index Dew Point Humidity Pressure Visibility Wind Dir Wind Speed Gust Speed Precip Events Conditions
12:18 AM 66.2 °F - 62.6 °F 88% 29.78 in 10.0 mi SSE 10.4 mph - N/A   Mostly Cloudy
12:51 AM 66.0 °F - 62.1 °F 87% 29.73 in 10.0 mi SSE 8.1 mph - N/A   Mostly Cloudy
1:51 AM 66.0 °F - 62.1 °F 87% 29.72 in 10.0 mi SSE 10.4 mph - N/A   Overcast
2:51 AM 66.0 °F - 62.1 °F 87% 29.72 in 10.0 mi SSE 9.2 mph - N/A   Overcast
3:51 AM 66.9 °F - 62.1 °F 84% 29.69 in 10.0 mi SSE 13.8 mph - N/A   Overcast
4:51 AM 66.9 °F - 63.0 °F 87% 29.69 in 10.0 mi South 8.1 mph - N/A   Overcast
4:58 AM 66.2 °F - 62.6 °F 88% 29.74 in 9.0 mi SSE 9.2 mph - N/A   Overcast
5:51 AM 66.9 °F - 63.0 °F 87% 29.71 in 7.0 mi South 4.6 mph - N/A   Mostly Cloudy
6:51 AM 68.0 °F - 64.0 °F 87% 29.71 in 7.0 mi South 6.9 mph - N/A   Mostly Cloudy
7:51 AM 69.1 °F - 64.0 °F 84% 29.74 in 7.0 mi Calm Calm - N/A   Overcast
8:51 AM 70.0 °F - 64.9 °F 84% 29.77 in 7.0 mi Calm Calm - N/A   Overcast
9:51 AM 71.1 °F - 64.9 °F 81% 29.79 in 10.0 mi South 3.5 mph - N/A   Overcast
10:51 AM 75.0 °F - 64.9 °F 71% 29.80 in 10.0 mi SSW 11.5 mph - N/A   Mostly Cloudy
11:51 AM 78.1 °F - 63.0 °F 60% 29.81 in 10.0 mi WNW 3.5 mph - N/A   Mostly Cloudy
12:51 PM 82.9 °F 82.8 °F 59.0 °F 44% 29.79 in 10.0 mi North 16.1 mph 24.2 mph N/A   Mostly Cloudy
1:51 PM 84.0 °F 82.6 °F 54.0 °F 35% 29.77 in 10.0 mi North 16.1 mph 26.5 mph N/A   Mostly Cloudy
2:51 PM 82.9 °F - 50.0 °F 32% 29.78 in 10.0 mi North 18.4 mph 26.5 mph N/A   Mostly Cloudy
3:51 PM 84.9 °F - 36.0 °F 17% 29.78 in 10.0 mi North 12.7 mph 21.9 mph N/A   Scattered Clouds
4:51 PM 84.0 °F - 21.9 °F 10% 29.82 in 10.0 mi North 18.4 mph 25.3 mph N/A   Scattered Clouds
5:51 PM 79.0 °F - 25.0 °F 14% 29.86 in 10.0 mi North 15.0 mph 21.9 mph N/A   Mostly Cloudy
6:51 PM 73.9 °F - 26.1 °F 17% 29.90 in 10.0 mi North 11.5 mph - N/A   Scattered Clouds
7:51 PM 71.1 °F - 26.1 °F 19% 29.94 in 10.0 mi North 12.7 mph - N/A   Scattered Clouds
8:51 PM 66.9 °F - 27.0 °F 22% 29.99 in 10.0 mi NNE 11.5 mph 17.3 mph N/A   Partly Cloudy
9:51 PM 64.0 °F - 28.0 °F 26% 30.01 in 10.0 mi NE 10.4 mph 21.9 mph N/A   Partly Cloudy
10:51 PM 61.0 °F - 28.9 °F 30% 30.04 in 10.0 mi NNE 8.1 mph 17.3 mph N/A   Scattered Clouds
11:51 PM 57.9 °F - 28.9 °F 33% 30.06 in 10.0 mi NNE 9.2 mph - N/A   Scattered Clouds